[[{"header":{"parameterUnit":"m.s-1","parameterCategory":1,"la1":30.2992,"la2":30.254,"lo1":-89.0895,"lo2":-89.0443,"dy":0.0025,"dx":0.0025,"nx":19,"ny":19,"refTime":"2026-05-08T09:00:00:Z","depth":0,"parameterNumber":2,"parameterNumberName":"U-component_of_WINDS"},"data":[0,0,0,-2.2433,-2.2435,-2.2512,-2.2513,-2.2629,-2.2631,0,0,0,0,0,0,0,0,0,0,0,-2.2422,-2.2423,-2.2433,-2.2435,-2.2512,-2.2513,-2.2629,-2.2631,0,0,0,0,0,0,0,0,0,0,0,-2.2421,-2.2422,-2.2424,-2.2436,-2.2512,-2.2513,-2.2629,-2.2564,0,0,0,0,0,0,0,0,0,0,-2.2486,-2.2487,-2.2422,-2.2424,-2.2436,-2.2512,-2.2513,-2.2561,-2.2568,-2.2602,0,-2.2636,0,-2.2635,-2.264,-2.264,0,0,0,-2.2427,-2.2481,-2.2491,-2.2424,-2.2437,-2.2512,-2.2475,-2.2565,-2.2573,-2.2612,-2.2637,-2.2641,-2.2637,-2.264,-2.2641,-2.2865,-2.2866,0,0,-2.2423,-2.2442,-2.2485,-2.2497,-2.2486,-2.2473,-2.2478,-2.257,-2.2598,-2.2637,-2.2643,-2.2639,-2.2641,-2.2642,-2.2863,-2.2865,0,0,0,-2.2416,-2.2439,-2.2447,-2.2493,-2.2505,-2.2475,-2.2481,-2.2594,-2.2595,-2.2644,-2.264,-2.2642,-2.2644,-2.2862,-2.2864,-2.2954,0,0,0,-2.2413,-2.2435,-2.2445,-2.2458,-2.2504,-2.2551,-2.2504,-2.2588,-2.2598,-2.264,-2.2642,-2.2645,-2.286,-2.2863,-2.2948,-2.2994,0,0,0,-2.2413,-2.2435,-2.245,-2.2459,-2.2492,-2.2549,-2.2555,-2.259,-2.2596,-2.264,-2.2645,-2.2859,-2.2862,-2.2943,-2.2985,-2.3059,0,0,0,-2.2418,-2.2529,-2.2452,-2.2574,-2.2492,-2.2603,-2.2554,-2.2636,-2.2684,-2.2643,-2.286,-2.2864,-2.2941,-2.298,-2.3054,-2.3126,-2.3158,0,0,-2.2569,-2.2548,-2.2618,-2.2551,-2.2681,-2.259,-2.2733,-2.2759,-2.2746,-2.2826,-2.2831,-2.295,-2.2985,-2.3058,-2.3324,-2.3349,0,0,0,-2.2672,-2.2723,-2.2753,-2.28,-2.2822,-2.2845,-2.2848,-2.2857,-2.2924,-2.2791,-2.2995,-2.3015,-2.3057,-2.3091,-2.3113,-2.3148,-2.2879,-2.2879,-2.2879,-2.2915,-2.2891,-2.3006,-2.2991,-2.3037,-2.3037,-2.3072,-2.3085,-2.3048,-2.3096,-2.3121,-2.3285,-2.3325,-2.3341,-2.3379,-2.3155,-2.3156,-2.3156,-2.3156,-2.3135,-2.3204,-2.315,-2.3243,-2.3217,-2.3294,-2.3298,-2.3269,-2.3337,-2.3265,-2.3301,-2.3226,-2.337,-2.3401,-2.3163,-2.3162,-2.3161,-2.316,-2.316,-2.3293,-2.3322,-2.3331,-2.3395,-2.3447,-2.3427,-2.3495,-2.3468,-2.3443,-2.3479,-2.3502,-2.3501,-2.3497,-2.3491,-2.3492,-2.3492,-2.3493,-2.3493,-2.3494,-2.3455,-2.3462,-2.3522,-2.3554,-2.3579,-2.361,-2.361,-2.3634,-2.3655,-2.363,-2.363,-2.3589,-2.3387,-2.3338,-2.3503,-2.3501,-2.35,-2.3499,-2.3498,-2.3692,-2.3633,-2.3727,-2.3753,-2.3787,-2.384,-2.3804,-2.3856,-2.3872,-2.3906,-2.3856,-2.3711,-2.3688,-2.3671,-2.363,-2.386,-2.386,-2.386,-2.386,-2.3827,-2.3812,-2.3901,-2.3944,-2.3982,-2.3958,-2.4065,-2.4065,-2.4056,-2.4064,-2.4026,-2.3969,-2.3953,-2.394,-2.3917,-2.3878,-2.4167,-2.4167,-2.4167,-2.3972,-2.3958,-2.4055,-2.4044,-2.4068,-2.409,-2.4189,-2.424,-2.4217,-2.4179,-2.4071,-2.4058,-2.3965,-2.3936,-2.3899,-2.3863,-2.3793,0,0]},{"header":{"parameterUnit":"m.s-1","parameterCategory":1,"la1":30.2992,"la2":30.254,"lo1":-89.0895,"lo2":-89.0443,"dy":0.0025,"dx":0.0025,"nx":19,"ny":19,"refTime":"2026-05-08T09:00:00:Z","depth":0,"parameterNumber":3,"parameterNumberName":"V-component_of_WINDS"},"data":[0,0,0,-3.5363,-3.5365,-3.5456,-3.5456,-3.557,-3.5571,0,0,0,0,0,0,0,0,0,0,0,-3.5338,-3.5339,-3.5363,-3.5365,-3.5456,-3.5456,-3.557,-3.5571,0,0,0,0,0,0,0,0,0,0,0,-3.5337,-3.5338,-3.5339,-3.5366,-3.5456,-3.5456,-3.557,-3.5501,0,0,0,0,0,0,0,0,0,0,-3.5413,-3.5392,-3.5338,-3.534,-3.5366,-3.5455,-3.5456,-3.5498,-3.5506,-3.5529,0,-3.5553,0,-3.5564,-3.5579,-3.5579,0,0,0,-3.5363,-3.5386,-3.5409,-3.534,-3.5367,-3.5455,-3.5414,-3.5502,-3.5511,-3.5539,-3.5555,-3.5559,-3.5566,-3.558,-3.558,-3.5729,-3.5729,0,0,-3.5358,-3.5354,-3.5404,-3.5415,-3.5404,-3.5411,-3.5417,-3.5507,-3.5523,-3.5555,-3.5562,-3.5568,-3.5581,-3.5581,-3.5728,-3.5729,0,0,0,-3.5345,-3.5351,-3.5372,-3.541,-3.5427,-3.5414,-3.5421,-3.5519,-3.5526,-3.5563,-3.5569,-3.5581,-3.5583,-3.5727,-3.5728,-3.5763,0,0,0,-3.5342,-3.5343,-3.537,-3.5368,-3.5425,-3.5475,-3.543,-3.552,-3.553,-3.5569,-3.5581,-3.5584,-3.5726,-3.5728,-3.576,-3.5779,0,0,0,-3.5331,-3.5342,-3.5356,-3.5368,-3.5407,-3.5473,-3.5486,-3.5522,-3.5534,-3.558,-3.5584,-3.5726,-3.5727,-3.5758,-3.5775,-3.5817,0,0,0,-3.5318,-3.5385,-3.5356,-3.5434,-3.5406,-3.5495,-3.5485,-3.5551,-3.5594,-3.5582,-3.5726,-3.5728,-3.5757,-3.5773,-3.5814,-3.585,-3.5865,0,0,-3.54,-3.5394,-3.544,-3.5418,-3.5511,-3.5482,-3.5579,-3.5621,-3.5628,-3.5694,-3.5698,-3.5761,-3.5775,-3.5816,-3.5953,-3.5965,0,0,0,-3.5465,-3.5497,-3.5523,-3.5565,-3.56,-3.5631,-3.5659,-3.5675,-3.5731,-3.5662,-3.5788,-3.5796,-3.582,-3.5838,-3.5848,-3.5868,-3.5736,-3.5736,-3.5736,-3.5573,-3.5581,-3.5656,-3.5674,-3.5715,-3.5744,-3.5776,-3.5802,-3.5796,-3.5825,-3.5844,-3.5927,-3.5947,-3.5955,-3.5976,-3.5865,-3.5865,-3.5865,-3.5865,-3.5693,-3.574,-3.5732,-3.5803,-3.5809,-3.5867,-3.5897,-3.5891,-3.5945,-3.5913,-3.5935,-3.5898,-3.5968,-3.5986,-3.5868,-3.5868,-3.5867,-3.5867,-3.5867,-3.5764,-3.5787,-3.5807,-3.5868,-3.5914,-3.593,-3.5982,-3.5986,-3.5989,-3.6011,-3.603,-3.603,-3.6028,-3.602,-3.602,-3.6021,-3.6021,-3.6021,-3.6021,-3.5829,-3.585,-3.5895,-3.5939,-3.5966,-3.6002,-3.6032,-3.6058,-3.6087,-3.6085,-3.6086,-3.6075,-3.5974,-3.5948,-3.6026,-3.6025,-3.6024,-3.6024,-3.6024,-3.5945,-3.592,-3.5989,-3.6017,-3.6068,-3.6113,-3.6118,-3.617,-3.6192,-3.6217,-3.6204,-3.6129,-3.6122,-3.6114,-3.6092,-3.6203,-3.6203,-3.6203,-3.6203,-3.6003,-3.6002,-3.6074,-3.6117,-3.616,-3.6172,-3.6248,-3.6271,-3.6291,-3.6304,-3.6289,-3.6261,-3.6252,-3.6251,-3.624,-3.6219,-3.636,-3.636,-3.636,-3.6074,-3.6077,-3.6142,-3.6164,-3.6204,-3.6238,-3.6309,-3.6357,-3.6374,-3.6367,-3.6315,-3.6308,-3.6262,-3.6247,-3.6237,-3.622,-3.6182,0,0]}]]